Location: Feigenhofen
(48.4939°N, 10.7793°E)
Time: 23:12:16
(UTC+00:00)

MSX - Pass Details

Date: 26 May 2022
Orbit: 895 x 905 km, 98.9° (Epoch: 24 June)

Event Time Altitude Azimuth Distance (km) Brightness Sun altitude
Rises 02:13:57 0° 13° (NNE) 3,534 8.1 -9.6°
Reaches altitude 10° 02:16:22 10° 11° (N) 2,591 7.2 -9.4°
Maximum altitude 02:22:07 70° 289° (WNW) 959 3.9 -8.7°
Drops below altitude 10° 02:27:50 10° 207° (SSW) 2,579 5.6 -8.1°
Enters shadow 02:28:17 - 206° (SSW) 2,752 5.8 -8.0°
